Погода в Кадниковском

Россия / Вологодская область     60°19′12″N   40°15′53″E
темп.,
°C
ветер,
м/с
пор.,
м/с
влажн.,
%
обл.,
%
осадки,
мм/ч
давл.,
гПа
погр.,
м
24 января, пн
пн2400:00−13юз3129594 0.0 1031265
03:00−12юз4129460 0.0 1031316
06:00−11юз4149190 0.0 1030396
09:00−11юз4149033 0.0 1029380
12:00−8юз5158911 0.0 1028452
15:00−7ююз5158869 0.0 1027503
18:00−7ююз51590100 0.0 1025499
21:00−7ююз61688100 0.0 1023498
25 января, вт
вт2500:00−7ююз6178886 0.0 1021590
03:00−8ююз61791100 0.1 1018558
06:00−8ююз51594100 0.4 1017543
09:00−8ююз51493100 1.1 1014538
12:00−7ююз41294100 0.8 1013503
15:00−7ююз4995100 2.2 1012479
18:00−8ююз3895100 1.1 1011351
21:00−8ююз2696100 2.0 1011244
26 января, ср
ср2600:00−8ююз1397100 0.4 101288
03:00−10сз149790 0.6 101382
06:00−12сз2599100 0.1 101474
09:00−11ссз259799 0.1 1015155
12:00−12ссз239663 0.0 1016103
15:00−12сз119754 0.0 10169
18:00−20зсз1110061 0.0 10179
21:00−22зсз1110058 0.0 10179
27 января, чт
чт2700:00−23ююз1110069 0.0 10179
03:00−23ююз11100100 0.0 10179
06:00−22ю11100100 0.0 101611
09:00−19ююв1299100 0.0 101542
12:00−12ю2591100 0.0 1014158
15:00−12ююв2793100 0.0 1013230
18:00−12ююв31095100 0.0 1012251
21:00−13ююв31094100 0.0 1011283
28 января, пт
пт2800:00−13ююв3109493 0.0 1011294
03:00−14ююв3119460 0.0 1010282
06:00−15ююв3119689 0.0 1010274
09:00−15ююв3119495 0.0 1009304
12:00−12ююв4119285 0.0 1009394
15:00−11ююв4109175 0.0 1009442
18:00−12юв31094100 0.0 1009353
21:00−11ююв31094100 0.2 1009442